Starlink 31638

operational
NORAD ID: 59489 Int'l Des: 2024-071 Owner: SPXS Country: US Constellation: starlink
LEOCIRCULAR

Starlink 31638について

説明を読み込み中...

リアルタイム位置

3D地球を読み込み中...

次回通過

高度履歴

Altitude vs Time

uPlot chart will show altitude changes over time

軌道要素

1 59489U 24071F 25311.00351644 .00001649 00000-0 69427-4 0 9996
2 59489 43.0049 312.4978 0001366 267.4797 92.5898 15.27589063 89441
Epoch: Nov 7, 2025 • Age: 12 hours

現在のステータス

高度 486.0 km
速度 7.62 km/s
衛星直下点 -16.53°S, 56.18°E
打ち上げ日 Apr 13, 2024
運用期間 1.5 years
タイプ internet

技術仕様

分類 Payload
質量 730.00 kg
乾燥質量 700.00 kg
総質量 730.00 kg
長さ 0.30 m
直径 4.10 m
スパン 29.00 m
形状 Box + pan
製造者 SPXS
バスタイプ Starlink V2M
フェーズステータス In Orbit
所有者/国 SPXS/US

大規模コンステレーション

Loading constellations...